This demonstration page uses our WeatherBlox Daily Observations layout. Learn more.

Left ArrowRight Arrow

44.8408, -93.29828

Hourly Observations for April 18, 2017

Temp ( °F °C ) Dew Point ( °F °C ) Humidity (%) Winds ( mph kmh ) Pressure ( in mb ) Visibility ( mi km ) Precip ( " mm )
12:53 am 00:53 Cloudy 51 10.6 31 -0.6 46 46 ESE 8 13 30.06 1018 10 16 0.00 0.00
1:53 am 01:53 Cloudy 51 10.6 32 0 48 48 ESE 14 22 30.04 1017 10 16 0.00 0.00
2:53 am 02:53 Cloudy 52 11.1 34 1.1 50 50 SE 15 24 29.99 1016 10 16 0.00 0.00
3:53 am 03:53 Cloudy 51 10.6 36 2.2 56 56 SSE 15 24 29.98 1015 10 16 0.00 0.00
4:53 am 04:53 Cloudy 51 10.6 39 3.9 64 64 SE 17 28 29.94 1014 10 16 0.00 0.00
5:53 am 05:53 Cloudy 52 11.1 40 4.4 64 64 SE 17 28 29.91 1013 10 16 0.00 0.00
6:53 am 06:53 Cloudy 52 11.1 40 4.4 64 64 SE 16 26 29.87 1011 10 16 0.00 0.00
7:13 am 07:13 Cloudy 53 11.7 41 5 64 64 SSE 7 11 29.94 1014 10 16 0.00 0.00
7:53 am 07:53 Cloudy with Light Rain 53 11.7 43 6.1 69 69 SE 13 20 29.90 1013 8 13 0.00 0.03
8:43 am 08:43 Cloudy with Rain 52 11.1 46 7.8 80 80 SE 14 22 29.88 1012 9 14 0.06 1.52
8:53 am 08:53 Cloudy with Light Rain 53 11.7 46 7.8 77 77 SSE 15 24 29.84 1010 9 14 0.07 1.78
9:53 am 09:53 Cloudy with Light Rain 55 12.8 48 8.9 77 77 S 15 24 29.79 1009 9 14 0.02 0.51
10:53 am 10:53 Cloudy with Light Rain 56 13.3 50 10 81 81 S 22 35 29.77 1008 3 5 0.04 1.02
11:00 am 11:00 Cloudy with Light Rain 56 13.3 50 10 81 81 S 22 35 29.77 1008 8 13 0.01 0.25
11:53 am 11:53 Cloudy 59 15 51 10.6 75 75 SSW 17 28 29.77 1008 10 16 0.02 0.51
12:53 pm 12:53 Cloudy 60 15.6 52 11.1 75 75 SSW 18 30 29.73 1007 10 16 0.00 0.00
1:21 pm 13:21 Cloudy 63 17.2 53 11.7 70 70 SW 17 28 29.74 1007 10 16 0.00 0.00
1:53 pm 13:53 Mostly Cloudy 65 18.3 50 10 59 59 WSW 20 31 29.74 1007 10 16 0.00 0.00
2:53 pm 14:53 Cloudy 60 15.6 46 7.8 60 60 WSW 21 33 29.78 1009 10 16 0.00 0.00
3:33 pm 15:33 Cloudy 57 13.9 46 7.8 67 67 W 23 37 29.80 1009 10 16 0.00 0.00
3:53 pm 15:53 Cloudy 56 13.3 46 7.8 70 70 W 21 33 29.81 1010 10 16 0.00 0.00
4:53 pm 16:53 Cloudy 54 12.2 46 7.8 75 75 W 20 31 29.85 1011 10 16 0.00 0.00
5:53 pm 17:53 Cloudy 54 12.2 45 7.2 72 72 WNW 15 24 29.88 1012 10 16 0.00 0.00
6:53 pm 18:53 Cloudy 54 12.2 45 7.2 72 72 WNW 14 22 29.89 1012 10 16 0.00 0.00
7:53 pm 19:53 Cloudy 52 11.1 44 6.7 75 75 W 14 22 29.93 1014 10 16 0.00 0.00
8:53 pm 20:53 Cloudy 51 10.6 43 6.1 74 74 W 12 19 29.95 1014 10 16 0.00 0.00
9:06 pm 21:06 Cloudy 50 10 43 6 76 76 W 13 20 29.97 1015 10 16 0.00 0.00
9:31 pm 21:31 Cloudy 50 10 43 6.1 77 77 WNW 9 15 29.97 1015 10 16 0.00 0.03
9:53 pm 21:53 Cloudy 50 10 43 6.1 77 77 WNW 10 17 29.98 1015 10 16 0.00 0.03
10:02 pm 22:02 Cloudy 50 10 43 6 76 76 WNW 9 15 29.97 1015 10 16 0.00 0.00
10:53 pm 22:53 Cloudy 49 9.4 45 7.2 86 86 WNW 9 15 30.00 1016 9 14 0.00 0.00
11:31 pm 23:31 Cloudy 48 8.9 41 5 77 77 NNW 13 20 30.00 1016 10 16 0.00 0.00
11:46 pm 23:46 Cloudy 48 9 41 5 76 76 N 9 15 30.00 1016 10 16 0.00 0.00
11:53 pm 23:53 Cloudy 48 8.9 41 5 77 77 N 9 15 30.00 1016 10 16 0.00 0.00

Powered by AerisWeather